Tracking 17631 objects as of 5-May-2016
HD Live streaming from Space Station
objects crossing your sky now

GLOBALSTAR M044

Track GLOBALSTAR M044 now!
10-day predictions
GLOBALSTAR M044 is classified as:


NORAD ID: 25678
Int'l Code: 1999-019C
Perigee: 1,727.0 km
Apogee: 1,737.6 km
Inclination: 52.0 °
Period: 121.0 minutes
Semi major axis: 8103 km
RCS: 2.4818 m2 (large)
Launch date: April 15, 1999
Source: Globalstar (GLOB)
Launch site: TYURATAM MISSILE AND SPACE COMPLEX (TTMTR)
Your satellite tracking list
Your tracking list is empty





NASA's NSSDC Master Catalog

Two Line Element Set (TLE):
1 25678U 99019C   16125.13935701 -.00000079  00000-0  69051-4 0  9992
2 25678  51.9966 229.2510 0006518  98.7840 336.0459 11.90171001774664
Source of the keplerian elements: AFSPC

N2YO: 285